This is the latest recevied weather packets stored in our database for station/object DL9GRB-13. If no packets are shown the sender has not sent any weather packets the latest 1 day(s).
| Time | Temp. | Humidity | Pressure | Rain* | Wind** | Luminosity | Snow |
|---|---|---|---|---|---|---|---|
| 1777988768 | 13.89° C | 65% | 1009.9 hPa | 0 mm | 0 m/s | 404 W/m² | - |
| 1777988588 | 13.89° C | 66% | 1009.8 hPa | 0 mm | 8.05 m/s, 329° | 391 W/m² | - |
| 1777988408 | 13.33° C | 70% | 1009.9 hPa | 0 mm | 4.47 m/s, 65° | 360 W/m² | - |
| 1777988228 | 13.33° C | 70% | 1009.9 hPa | 0 mm | 3.13 m/s, 114° | 330 W/m² | - |
| 1777988048 | 13.33° C | 70% | 1009.8 hPa | 0 mm | 8.05 m/s, 106° | 392 W/m² | - |
| 1777987868 | 13.33° C | 70% | 1009.8 hPa | 0 mm | 6.71 m/s, 86° | 409 W/m² | - |
| 1777987688 | 13.33° C | 70% | 1009.8 hPa | 0 mm | 10.73 m/s, 71° | 463 W/m² | - |
| 1777987508 | 12.78° C | 69% | 1010 hPa | 0 mm | 6.71 m/s, 32° | 505 W/m² | - |
| 1777987328 | 12.78° C | 69% | 1009.7 hPa | 0 mm | 4.47 m/s, 71° | 467 W/m² | - |
| 1777987148 | 12.78° C | 68% | 1009.9 hPa | 0 mm | 8.94 m/s, 72° | 398 W/m² | - |
| 1777986968 | 12.78° C | 70% | 1009.9 hPa | 0 mm | 6.71 m/s, 53° | 327 W/m² | - |
| 1777986788 | 12.78° C | 69% | 1010 hPa | 0 mm | 6.71 m/s, 100° | 291 W/m² | - |
| 1777986608 | 12.78° C | 69% | 1009.9 hPa | 0 mm | 3.58 m/s, 44° | 309 W/m² | - |
| 1777986428 | 12.22° C | 69% | 1009.7 hPa | 0 mm | 5.36 m/s, 92° | 324 W/m² | - |
| 1777986248 | 12.78° C | 68% | 1010.1 hPa | 0 mm | 7.15 m/s, 89° | 287 W/m² | - |
| 1777986068 | 12.78° C | 70% | 1009.8 hPa | 0 mm | 4.92 m/s, 31° | 296 W/m² | - |
| 1777985888 | 12.78° C | 69% | 1010 hPa | 0 mm | 4.02 m/s, 56° | 285 W/m² | - |
| 1777985708 | 12.78° C | 71% | 1010.1 hPa | 0 mm | 6.71 m/s, 55° | 281 W/m² | - |
| 1777985528 | 12.78° C | 70% | 1010 hPa | 0 mm | 2.68 m/s, 247° | 268 W/m² | - |
| 1777985348 | 12.22° C | 71% | 1010.1 hPa | 0 mm | 4.02 m/s, 100° | 243 W/m² | - |
| 1777985168 | 12.22° C | 70% | 1009.9 hPa | 0 mm | 9.39 m/s, 64° | 223 W/m² | - |
| 1777984988 | 12.78° C | 71% | 1010.1 hPa | 0 mm | 4.47 m/s, 115° | 223 W/m² | - |
| 1777984808 | 12.78° C | 71% | 1010.2 hPa | 0 mm | 4.02 m/s, 3° | 237 W/m² | - |
| 1777984628 | 12.78° C | 73% | 1009.9 hPa | 0 mm | 5.81 m/s, 68° | 273 W/m² | - |
| 1777984448 | 12.22° C | 74% | 1010.2 hPa | 0 mm | 8.05 m/s, 126° | 354 W/m² | - |
* Rain latest hour (hover to see other rain measurements)
** Current wind speed in m/s (hover to see current wind gust speed)